Regional Weather Roundup
Issued by NWS Shreveport, LA

Current Version | Previous Version | Text Only | Print | Product List | Glossary On
Versions: 1 2 3 4 5 6 7 8 9 10 11 12 13 14 15 16 17 18 19 20 21 22 23 24 25 26 27
000
ASUS44 KSHV 301210
RWRSHV

THE FOUR STATE AREA WEATHER ROUNDUP
NATIONAL WEATHER SERVICE SHREVEPORT LA
700 AM CDT FRI SEP 30 2022

NOTE:  "FAIR" INDICATES FEW OR NO CLOUDS BELOW 12000 FEET
WITH NO SIGNIFICANT WEATHER AND/OR OBSTRUCTIONS TO VISIBILITY.

!LAZ001-LAZ014-TXZ097-301300
SHREVEPORT...MONROE...TEXARKANA RADIOS

CITY           SKY/WX    TMP DP  RH WIND       PRES   REMARKS
SHREVEPORT     CLEAR     53  44  71 N6        30.12R
MONROE         CLEAR     50  46  86 N5        30.12R
NATCHITOCHES   CLEAR     47  45  92 CALM      30.10S
TEXARKANA      CLEAR     52  43  71 E5        30.14S
ATLANTA        FAIR      44  44  99 CALM      30.14S
$$

!LAZ001-LAZ014-TXZ097-301300
OTHER LOCATIONS...

CITY           SKY/WX    TMP DP  RH WIND       PRES   REMARKS
DOWNTOWN SHV   CLEAR     54  44  69 CALM      30.13R
BOSSIER CITY   CLEAR     49  42  75 N3        30.11S
RUSTON         CLEAR     47  44  88 CALM      30.14S
LITTLE ROCK    CLEAR     53  42  66 N6        30.17S
EL DORADO      CLEAR     45  43  93 NW5       30.13S
JACKSON        CLEAR     54  46  74 NE9       30.08R
NEW ORLEANS    CLEAR     66  52  60 NE7       30.01R
HOUSTON        CLEAR     56  47  71 NW3       30.08R
LUFKIN         CLEAR     51  45  79 N3        30.11R
TYLER          CLEAR     53  44  71 NE3       30.12S
DAL FT WORTH   CLEAR     60  44  55 SE5       30.11S
$$


!TXZ136-TXZ165-301300
TYLER...LUFKIN RADIOS

CITY           SKY/WX    TMP DP  RH WIND       PRES   REMARKS
TYLER          CLEAR     53  44  71 NE3       30.12S
GILMER         SUNNY     46  43  89 CALM      30.14S
LONGVIEW       CLEAR     46  42  86 CALM      30.12S
LUFKIN         CLEAR     51  45  79 N3        30.11R
$$

!TXZ136-TXZ165-301300
OTHER LOCATIONS...

CITY           SKY/WX    TMP DP  RH WIND       PRES   REMARKS
NACOGDOCHES    CLEAR     48  43  82 CALM      30.12S
BEAUMONT       CLEAR     54  46  74 N7        30.06R
HOUSTON        CLEAR     56  47  71 NW3       30.08R
COLLEGE STN    CLEAR     59  46  62 NE6       30.08F
AUSTIN         CLEAR     59  47  64 VRB3      30.08S
DAL FT WORTH   CLEAR     60  44  55 SE5       30.11S
TEXARKANA      CLEAR     52  43  71 E5        30.14S
SHREVEPORT     CLEAR     53  44  71 N6        30.12R
FORT POLK      CLEAR     53  45  74 N7        30.07R
LAKE CHARLES   CLEAR     52  44  74 N5        30.06S
$$



USA.gov is the U.S. government's official web portal to all federal, state and local government web resources and services.